Regional Weather Roundup
Issued by NWS Sioux Falls, SD

Home | Current Version | Previous Version | Text Only | Print | Product List | Glossary On
Versions: 1 2 3 4 5 6 7 8 9 10 11 12 13 14 15 16 17 18 19 20 21 22 23 24 25 26 27 28 29 30 31 32 33 34 35 36 37 38 39 40 41 42 43 44 45 46 47 48 49 50
962
ASUS43 KFSD 080410
RWRFSD

WEATHER ROUNDUP FOR SE SOUTH DAKOTA/SW MINNESOTA/NW IOWA
NATIONAL WEATHER SERVICE SIOUX FALLS SD
1000 PM CST WED DEC 07 2016

NOTE: "FAIR" INDICATES FEW OR NO CLOUDS BELOW 12,000 FEET WITH NO
SIGNIFICANT WEATHER AND OR OBSTRUCTIONS TO VISIBILITY.


SDZ038>040-050-052>070-080500-
SOUTHEAST SOUTH DAKOTA

CITY           SKY/WX    TMP DP  RH WIND       PRES   REMARKS
BROOKINGS      CLEAR      6   1  80 NW22G28   30.29R WCI -15
CHAMBERLAIN    MOCLDY    10   2  72 NW21G28   30.48R WCI -10
HURON          LGT SNOW   8   3  80 NW24G32   30.41R WCI -13
MADISON        MOCLDY     7   3  85 NW25G36   30.31R WCI -15
MITCHELL       MOCLDY    10   2  69 NW23G35   30.44R WCI -10
SIOUX FALLS    PTCLDY     9   3  77 NW23G33   30.34R WCI -11
WINNER         FAIR       9  -1  64 NW23G32   30.47R WCI -11
YANKTON        CLEAR     12   3  67 NW21G30   30.41R WCI  -6
$$

MNZ071-072-080-081-089-090-097-098-080500-
SOUTHWEST MINNESOTA

CITY           SKY/WX    TMP DP  RH WIND       PRES   REMARKS
FAIRMONT       CLEAR     11   4  73 NW22G29   30.24R WCI  -8
JACKSON        CLEAR     10   3  72 W21G28    30.24R WCI  -9
LUVERNE        CLEAR     10   1  67 NW21G30   30.32R WCI  -9
MARSHALL       LGT SNOW  10   5  79 NW26      30.25R WCI -11
MONTEVIDEO     LGT SNOW  14   9  79 NW17G25   30.25R WCI  -3
PIPESTONE      PTCLDY     9   3  78 NW22G32   30.27R WCI -11
REDWOOD FALLS  LGT SNOW  12   5  73 W17G30    30.24R WCI  -5
TRACY          MOCLDY    11   4  74 W16G24    30.26R WCI  -6
WINDOM         CLEAR     10   3  72 W23G31    30.23R WCI -10
WORTHINGTON    CLEAR      8   2  76 W24       30.26R WCI -13
$$

IAZ001>003-012>014-020>022-031-032-NEZ013-014-SDZ071-080500-
NORTHWEST IOWA

CITY           SKY/WX    TMP DP  RH WIND       PRES   REMARKS
CHEROKEE       MOCLDY    14   6  69 NW14G28   30.33S WCI  -1
DENISON        CLOUDY    14   9  79 W8G20     30.35R WCI   3
ESTHERVILLE    CLEAR     10   4  76 NW25G37   30.25S WCI -11
LE MARS        CLOUDY    14   7  73 NW17      30.38S WCI  -3
ORANGE CITY    CLOUDY    12   7  79 NW23G32   30.32R WCI  -7
SHELDON        CLOUDY    12   5  73 NW30G38   30.30R WCI  -9
SIOUX CITY     CLEAR     16   5  62 NW18G26   30.39R WCI   0
SPENCER        MOCLDY    12   5  73 NW25G31   30.29R WCI  -8
STORM LAKE     CLOUDY    12   7  79 NW21G30   30.30R WCI  -6
$$

ABBREVIATIONS USED IN REMARKS
   TC - TEMPERATURE IN CELSIUS
  WCI - WIND CHILL INDEX
   HX - HEAT INDEX
  VSB - VISIBILITY





USA.gov is the U.S. government's official web portal to all federal, state and local government web resources and services.